Regional Weather Roundup
Issued by NWS New Orleans/Baton Rouge, LA

Home | Current Version | Previous Version | Graphics & Text | Print | Product List | Glossary Off
Versions: 1 2 3 4 5 6 7 8 9 10 11 12 13 14 15 16 17 18 19 20 21 22 23 24 25 26 27 28 29 30 31 32 33 34 35 36 37 38 39 40 41 42 43 44 45 46 47 48 49 50

405
ASUS44 KLIX 241410
RWRLIX
NEW ORLEANS REGIONAL WEATHER ROUNDUP
NATIONAL WEATHER SERVICE NEW ORLEANS LA
900 AM CDT THU APR 24 2014

NOTE: "FAIR" INDICATES FEW OR NO CLOUDS BELOW 12,000 FEET WITH NO
      SIGNIFICANT WEATHER AND/OR OBSTRUCTIONS TO VISIBILITY.
      SKY/WX - SKY CONDITION AND SIGNIFICANT WEATHER.
      TMP - AIR TEMPERATURE.     DP    - DEWPOINT TEMPERATURE.
      RH  - RELATIVE HUMIDITY.   PRES  - PRESSURE.
      HI  - HEAT INDEX.          WCI   - WIND CHILL INDEX.

*  THESE STATIONS ARE NOT NWS OR FAA STATIONS AND ARE NOT UNDER
   NWS QUALITY CONTROL.

LAZ038-040-048-061>063-065>067-069-241500-
SOUTHEAST LOUISIANA

CITY           SKY/WX    TMP DP  RH WIND       PRES   REMARKS
N.O. AUDUBON     N/A     76  65  68 MISG        N/A
N.O. INTL ARPT MOSUNNY   71  68  90 VRB3      29.97R
N.O. LAKEFRONT MOSUNNY   72  66  81 S5        29.98R
N.O. DOWNTOWN* PTSUNNY   73  63  68 SE6       29.98R
SLIDELL        MOSUNNY   68  66  93 CALM      29.98R
BATON ROUGE    FOG       67  65  93 E3        29.97R VSB 1
BOOTHVILLE     MOSUNNY   70  67  90 SE6       29.98R
BELLE CHASSE   PTSUNNY   73  65  75 VRB3      29.97R HAZE
BOGALUSA*      FOG       66  63  91 CALM      30.00R VSB 1/4
GALLIANO*      MOSUNNY   74  67  76 SE6       29.97R
NEW ROADS*     FOG       65  65  97 S3        29.97R VSB 1/2
GONZALES*      CLOUDY    67  67 100 CALM      29.97R
HAMMOND*       MOSUNNY   70  64  83 CALM      29.99R
HOUMA*         MOSUNNY   72  66  83 S5        29.96R
PORT FOURCHON* MOSUNNY   73  66  78 S7        29.98R

$$

MSZ070-080>082-241500-
SOUTHERN MISSISSIPPI

CITY           SKY/WX    TMP DP  RH WIND       PRES   REMARKS
MCCOMB         CLOUDY    66  63  90 CALM      29.98R FOG
GULFPORT       PTSUNNY   75  65  70 S5        29.98R
BILOXI         CLOUDY    71  68  90 VRB2      29.98R
PASCAGOULA     MOSUNNY   71  67  87 CALM      29.98S
STENNIS ARPT*  PTSUNNY   59  55  88 CALM      29.99R FOG

$$

COASTAL OBSERVATIONS
LAKE AND NEARSHORE STATIONS

STATION/POSITION TIME  TEMP    WIND        PRES    WAVE
                       AIR SEA DIR/SP/G            HT/PER
                 (UTC) (F)     (DEG/KT/KT) (MB)    (FT/S)
PASCAGOULA       1400   69     310/  2/  3 1014.6
WAVELAND YACHT   1400   70 74  140/  4/  5 1014.5
GRAND ISLE       1400   72 73  140/  5/  6 1015.3
SOUTHWEST PASS   1400   69 60  140/  2/  4 1015.3
NEW CANAL        1400   72 70  180/  3/  5 1015.3
SHELL BEACH      1400   71 68  170/  5/  6 1014.8

OFFSHORE STATIONS

STATION/POSITION TIME  TEMP    WIND        PRES    WAVE
                       AIR SEA DIR/SP/G            HT/PER
                 (UTC) (F)     (DEG/KT/KT) (MB)    (FT/S)
64 S DAUPHIN ISL 1344   70 72  190/  4/  4 1015.6

$$




USA.gov is the U.S. government's official web portal to all federal, state and local government web resources and services.